TimeEDT,TemperatureF,Dew PointF,Humidity,Sea Level PressureIn,VisibilityMPH,Wind Direction,Wind SpeedMPH,Gust SpeedMPH,PrecipitationIn,Events,Conditions,WindDirDegrees,DateUTC
12:53 AM,33.1,21.0,61,30.06,10.0,West,3.5,-,N/A,,Clear,270,2014-03-22 04:53:00
1:53 AM,30.9,19.9,64,30.09,10.0,Calm,Calm,-,N/A,,Clear,0,2014-03-22 05:53:00
2:53 AM,30.0,19.9,66,30.07,10.0,Calm,Calm,-,N/A,,Clear,0,2014-03-22 06:53:00
3:53 AM,25.0,17.1,72,30.06,10.0,Calm,Calm,-,N/A,,Clear,0,2014-03-22 07:53:00
4:53 AM,21.9,16.0,78,30.06,10.0,Calm,Calm,-,N/A,,Clear,0,2014-03-22 08:53:00
5:53 AM,19.9,15.1,81,30.03,10.0,Calm,Calm,-,N/A,,Clear,0,2014-03-22 09:53:00
6:53 AM,19.0,15.1,85,30.04,10.0,Calm,Calm,-,N/A,,Clear,0,2014-03-22 10:53:00
7:53 AM,35.1,28.0,76,29.99,10.0,SSE,8.1,-,N/A,,Clear,160,2014-03-22 11:53:00
8:53 AM,37.9,30.0,73,29.99,10.0,South,12.7,-,N/A,,Clear,180,2014-03-22 12:53:00
9:53 AM,39.9,30.0,68,29.94,10.0,SSE,17.3,23.0,N/A,,Clear,160,2014-03-22 13:53:00
10:53 AM,44.1,30.9,60,29.89,10.0,South,20.7,29.9,N/A,,Scattered Clouds,170,2014-03-22 14:53:00
11:53 AM,46.9,33.1,59,29.82,10.0,SSE,17.3,29.9,N/A,,Clear,160,2014-03-22 15:53:00
12:53 PM,48.9,36.0,61,29.76,10.0,South,26.5,35.7,N/A,,Clear,170,2014-03-22 16:53:00
1:53 PM,51.1,39.9,66,29.72,10.0,SSW,20.7,31.1,N/A,,Clear,210,2014-03-22 17:53:00
2:53 PM,51.1,37.0,59,29.71,10.0,SW,19.6,33.4,N/A,,Mostly Cloudy,230,2014-03-22 18:53:00
3:53 PM,50.0,37.0,61,29.72,10.0,SW,12.7,21.9,N/A,,Mostly Cloudy,230,2014-03-22 19:53:00
4:53 PM,52.0,36.0,54,29.74,10.0,WSW,12.7,24.2,N/A,,Clear,250,2014-03-22 20:53:00
5:53 PM,52.0,35.1,53,29.77,10.0,West,12.7,23.0,N/A,,Clear,260,2014-03-22 21:53:00
6:53 PM,48.9,34.0,56,29.80,10.0,WSW,8.1,-,N/A,,Clear,250,2014-03-22 22:53:00
7:53 PM,48.0,34.0,58,29.83,10.0,West,6.9,-,N/A,,Clear,270,2014-03-22 23:53:00
8:53 PM,44.1,33.1,65,29.88,10.0,WNW,8.1,-,N/A,,Clear,290,2014-03-23 00:53:00
9:53 PM,45.0,24.1,44,29.92,10.0,NW,10.4,-,N/A,,Clear,320,2014-03-23 01:53:00
10:53 PM,44.1,21.9,42,29.93,10.0,NNW,13.8,-,N/A,,Clear,330,2014-03-23 02:53:00
11:53 PM,41.0,23.0,49,29.94,10.0,North,8.1,-,N/A,,Clear,360,2014-03-23 03:53:00